Location: Marquette
(46.5440°N, 87.3950°W)
Time: 16:37:54
(UTC-04:00)

Daily predictions for brighter satellites

Satellite Brightness Start Highest point End
(mag) Time Altitude Azimuth Time Altitude Azimuth Time Altitude Azimuth
Meteor 2-10 Rocket 4.1 21:22:15 10° SSE 21:27:46 46° E 21:33:13 10° NNE
Spot 2 Rocket 4.0 21:24:55 10° S 21:29:59 65° WSW 21:35:02 10° NNW
Cosmos 2278 Rocket 3.8 21:25:58 10° N 21:30:09 20° NE 21:34:19 10° E
Okean 2 Rocket 4.5 21:27:33 10° NNE 21:31:12 23° ENE 21:34:48 10° ESE
Lacrosse 4 Rocket 4.1 21:30:56 10° WNW 21:34:00 19° WSW 21:37:05 10° SSW
Cosmos 2333 Rocket 3.9 21:33:58 10° SE 21:36:48 14° E 21:39:37 10° ENE
Helios 1B rocket 2.6 21:32:51 10° NNE 21:36:52 50° E 21:40:51 10° S
USA 234 3.5 21:31:10 10° ESE 21:37:38 65° NNE 21:44:07 10° NW
Intercosmos 25 Rocket 3.9 21:36:35 10° SSW 21:40:04 70° WNW 21:45:11 10° N
Cosmos 1703 Rocket 4.0 21:42:08 10° SSE 21:46:18 41° E 21:50:27 10° NNE
Meteor 1-29 3.1 21:45:59 10° NNE 21:49:25 53° E 21:52:46 10° S
Cosmos 2219 Rocket 3.3 21:45:46 10° SSE 21:49:56 22° E 21:54:07 10° NE
Envisat 3.0 21:45:11 10° SSE 21:50:16 89° ENE 21:55:24 10° NNW
SAR-Lupe-4 3.8 21:49:25 10° S 21:53:00 71° WSW 21:56:36 10° NNW
USA 186 3.3 21:51:11 10° SSW 21:53:53 34° W 21:56:45 10° NNW
SPOT 5 3.8 21:57:52 13° ESE 22:01:19 29° ENE 22:05:13 10° N
SeaSat 1 3.9 21:58:47 10° E 22:02:42 26° NE 22:06:45 10° N
Cosmos 1933 4.3 21:59:15 10° SSW 22:03:10 51° WNW 22:07:08 10° N
ERS-1 Rocket 3.1 22:01:58 11° SSE 22:06:49 63° ENE 22:11:47 10° N
Cosmos 2263 Rocket 3.9 22:02:23 10° NW 22:07:08 29° WSW 22:11:52 10° SSW
Cosmos 2266 Rocket 4.0 22:02:34 10° N 22:08:55 82° E 22:15:19 10° S
H-2A R/B 3.3 22:06:42 13° ESE 22:09:48 24° ENE 22:13:40 10° N
NOSS 3-1 (C) 3.8 22:14:01 10° S 22:19:21 40° ESE 22:25:18 10° NE
Cosmos 2221 Rocket 3.5 22:15:32 10° S 22:19:55 71° E 22:24:22 10° NNE
Cosmos 1782 3.3 22:18:24 17° SSE 22:21:03 39° E 22:24:48 10° NNE
MetOp-B 4.3 22:17:11 16° SSE 22:21:27 60° ENE 22:26:44 10° N
Meteor 1-26 Rocket 4.4 22:15:57 10° SSW 22:21:41 79° W 22:27:34 10° N
YAOGAN 11 4.3 22:20:58 19° SE 22:23:54 54° ENE 22:28:07 10° N
Cosmos 2322 Rocket 4.5 22:21:08 10° WSW 22:25:54 28° NW 22:30:44 10° N
USA 229 DEB 3.8 22:20:10 10° SW 22:27:01 87° NW 22:34:03 10° NE
USA 229 3.7 22:20:17 10° SW 22:27:09 87° NW 22:34:10 10° NE
H-2A R/B 3.8 22:27:25 15° E 22:29:15 20° ENE 22:32:25 10° NNE
Cosmos 2237 4.3 22:25:44 10° SSW 22:31:29 85° WNW 22:37:16 10° NNE
Cosmos 2360 Rocket 3.1 22:26:15 10° SW 22:31:46 54° WNW 22:37:21 10° NNE
Cosmos 1346 Rocket 4.0 22:31:35 23° ESE 22:32:15 24° E 22:35:29 10° NE
Terra 3.4 22:32:31 17° E 22:34:36 22° ENE 22:38:13 10° NNE
ATLAS 5 CENTAUR R/B 4.2 22:29:54 10° WNW 22:34:46 25° WSW 22:39:54 10° SSW
Meteor 1-27 Rocket 4.5 22:33:10 22° SE 22:35:52 33° E 22:40:45 10° NNE
NOSS 3-1 (A) 3.8 22:31:50 10° S 22:37:12 40° ESE 22:43:09 10° NE
COSMOS 2428 2.7 22:35:31 10° SSW 22:41:13 89° ESE 22:46:58 10° NNE
Cosmos 1898 Rocket 4.3 22:37:12 10° N 22:42:02 38° ENE 22:44:33 24° ESE
USA 267 3.7 22:38:02 10° NE 22:44:30 64° NNW 22:50:57 10° WSW
ARGOS 3.1 22:41:16 22° SSE 22:44:44 73° ENE 22:50:07 10° N
Cosmos 1980 4.2 22:42:14 21° SSE 22:45:26 38° ESE 22:50:37 10° NE
NOAA 11 4.2 22:41:21 18° SSE 22:45:32 85° WSW 22:51:04 10° NNW
Cosmos 1844 3.7 22:40:33 10° NNW 22:46:15 80° WSW 22:49:47 23° SSE
Cosmos 1300 Rocket 4.4 22:42:21 10° N 22:46:20 33° ENE 22:47:38 27° ESE
Abrixas rocket 2.1 22:43:51 10° WNW 22:47:09 77° SSW 22:47:59 46° SE
YAOGAN 6 3.9 22:46:02 12° SSW 22:49:00 36° W 22:52:21 10° NNW
Cosmos 1553 Rocket 4.4 22:46:05 23° SSE 22:49:35 45° E 22:55:24 10° NNE
Cosmos 1606 2.6 22:48:19 29° S 22:50:06 69° E 22:53:53 10° NNE
Okean 1-7 3.5 22:46:30 10° SSW 22:50:52 62° W 22:55:15 10° N
SWAS 4.4 22:47:21 10° NNW 22:51:43 77° ENE 22:53:29 35° SE
SL-16 R/B 3.7 22:53:21 18° E 22:53:21 18° E 22:56:38 10° ENE
Cosmos 2084 3.2 22:49:30 10° NW 22:53:20 72° SW 22:54:45 38° SSE
Atlas Centaur 2 4.2 22:49:29 10° SW 22:53:59 19° S 22:55:28 17° S
SPOT 1/Viking Rocket 3.6 22:55:00 29° SSE 22:57:42 71° ENE 23:02:54 10° N
ATLAS 3B R/B 4.1 22:51:48 10° NNW 22:57:50 30° NNE 23:03:13 11° E
Meteor 1-10 Rocket 4.2 22:54:02 12° S 22:59:31 84° E 23:05:22 10° NNE
Meteor 1-11 Rocket 3.7 22:55:57 10° N 23:01:27 64° ENE 23:04:01 32° SSE
MOS 1-B Rocket 3.9 23:02:57 24° S 23:06:32 79° WSW 23:12:10 10° NNW
SL-08 RB Rocket 3.6 23:05:09 34° SSE 23:07:10 87° WSW 23:11:44 10° NNW
Cosmos 1844 Rocket 3.6 23:02:41 10° NW 23:07:55 42° WSW 23:11:28 19° SSW
USA 245 4.0 23:05:21 25° S 23:08:24 71° WSW 23:12:50 10° NNW
Okean 2 Rocket 4.4 23:05:13 10° NNW 23:09:25 38° W 23:12:43 15° SSW
ATLAS CENTAUR R/B 3.5 23:12:44 14° ENE 23:12:44 14° ENE 23:13:35 10° ENE
Nimbus 7 Rocket 4.3 23:04:54 10° NNE 23:10:53 73° ESE 23:14:59 21° S
Cosmos 2237 Rocket 2.3 23:08:37 25° S 23:11:51 56° ESE 23:17:25 10° NE
CZ-4C R/B 2.9 23:05:52 10° NW 23:12:57 85° SW 23:17:07 31° SSE
Cosmos 1378 Rocket 4.5 23:13:23 32° E 23:13:24 32° E 23:17:20 10° NNE
Okean 3 4.4 23:14:08 31° E 23:14:08 31° E 23:17:35 10° NNE
Cosmos 468 Rocket 4.4 23:13:09 38° SE 23:14:08 41° ESE 23:19:07 10° NE
Cosmos 2278 Rocket 2.2 23:09:18 10° NNW 23:14:59 85° WSW 23:17:25 36° SSE
Cosmos 2333 Rocket 2.2 23:14:23 10° SSW 23:20:09 86° ESE 23:25:58 10° NNE
USA 234 3.8 23:17:39 28° S 23:20:49 47° SW 23:27:07 10° WNW
Cosmos 1633 3.0 23:18:13 10° NNW 23:21:51 58° W 23:22:39 45° SW
S3M 3.9 23:18:41 29° S 23:21:57 74° E 23:28:12 10° NNE
Timation 1 Rocket 4.3 23:17:15 10° NNW 23:23:17 86° ENE 23:25:37 39° SSE
IGS 5A 3.7 23:25:05 49° E 23:25:34 53° ENE 23:29:38 10° N
Cosmos 1536 2.8 23:21:44 10° N 23:25:45 60° E 23:26:02 58° E
Cosmos 2292 Rocket 4.4 23:25:19 10° NNE 23:26:59 23° NE 23:26:59 23° NE
Cosmos 2219 Rocket 2.6 23:27:49 10° SW 23:33:22 63° WNW 23:38:59 10° NNE
deb Chang Zheng 4 3.8 23:30:33 10° NNE 23:34:48 52° E 23:34:48 52° E
CARTOSAT-1 3.4 23:36:40 65° SE 23:37:13 77° ENE 23:41:34 10° N
SPOT 5 4.1 23:37:06 22° SW 23:39:20 33° W 23:43:28 10° NNW
SeaSat 1 2.7 23:38:34 43° S 23:39:55 59° WSW 23:44:49 10° NW
CZ-4C R/B 4.4 23:41:09 31° NE 23:41:09 31° NE 23:43:56 10° N
Aureole 2 Rocket 3.9 23:44:13 28° N 23:44:13 28° N 23:45:51 10° N
SL-19 R/B 4.3 23:37:49 10° NNE 23:43:50 66° ESE 23:45:24 47° SSE
Meteor 1-5 Rocket 4.2 23:39:34 10° N 23:45:18 80° ENE 23:46:56 50° SSE
Gbstr 26 Del rocket 4.4 23:39:30 10° SW 23:47:18 71° SE 23:55:22 10° ENE
H-2A R/B 2.6 23:47:19 35° SSW 23:48:57 49° W 23:53:44 10° NNW
Cosmos 2298 Rocket 4.0 23:44:01 10° NNW 23:49:22 75° WSW 23:50:34 53° S
NOSS 0 Rocket 4.1 23:44:55 10° SW 23:51:02 69° WNW 23:57:12 10° NNE
Cosmos 1745 Rocket 4.2 23:44:57 10° NNW 23:51:15 68° W 23:53:58 36° SSW
Okean 1 Rocket 3.1 23:49:03 10° NNW 23:53:30 70° W 23:54:01 62° SW
Cosmos 1455 Rocket 4.4 23:50:01 10° NNE 23:53:44 28° ENE 23:53:44 28° ENE
Cosmos 1674 Rocket 4.1 23:52:47 40° SW 23:53:56 54° WNW 23:58:11 10° N
